Location: Munkebjergskolens Observatorium
(55.3864°N, 10.3987°E)
Time: 21:40:03
(UTC+02:00)

STRAND 1 - Visible Passes

Search period start: 23 April 2024 00:00
Search period end: 03 May 2024 00:00
Orbit: 764 x 779 km, 98.4° (Epoch: 23 April)

Date Brightness Start Highest point End Pass type
(mag) Time Alt. Az. Time Alt. Az. Time Alt. Az.
23 Apr ? 04:30:17 10° E 04:33:04 15° NE 04:35:50 10° NNE visible
23 Apr ? 21:27:10 10° N 21:31:31 29° WNW 21:35:51 10° WSW visible
24 Apr ? 22:32:47 10° NNW 22:34:56 13° NW 22:37:04 10° WNW visible
25 Apr ? 04:58:16 10° E 05:02:03 22° NE 05:05:52 10° N visible
25 Apr ? 21:56:59 10° N 22:00:35 20° NW 22:04:10 10° W visible
26 Apr ? 04:25:09 10° ENE 04:27:40 14° NE 04:30:13 10° NNE visible
26 Apr ? 21:21:38 10° N 21:26:05 31° WNW 21:30:32 10° WSW visible
27 Apr ? 22:27:06 10° NNW 22:29:32 14° NW 22:31:59 10° WNW visible
28 Apr ? 04:53:00 10° E 04:56:39 20° NE 05:00:18 10° N visible
28 Apr ? 21:51:24 10° N 21:55:09 21° NW 21:58:55 10° W visible
29 Apr ? 04:20:01 10° ENE 04:22:16 13° NE 04:24:32 10° NNE visible
30 Apr ? 22:21:25 10° NNW 22:24:07 15° NW 22:26:50 10° WNW visible
01 May ? 04:47:43 10° E 04:51:12 19° NE 04:54:42 10° N visible
01 May ? 21:45:48 10° N 21:49:43 23° NW 21:53:37 10° WSW visible
02 May ? 04:14:54 10° ENE 04:16:51 12° NE 04:18:48 10° NNE visible
